Location: Beaurecueil
(43.5122°N, 5.5450°E)
Time: 16:46:47
(UTC+00:00)

CZ-4 R/B - Pass Details

Date: 18 September 2020
Orbit: 530 x 600 km, 97.7° (Epoch: 20 October)

Event Time Altitude Azimuth Distance (km) Brightness Sun altitude
Rises 18:43:04 0° 186° (S) 2,832 4.9 -11.8°
Reaches altitude 10° 18:45:21 10° 195° (SSW) 1,936 4.1 -12.2°
Maximum altitude 18:49:15 36° 263° (W) 963 3.2 -12.9°
Drops below altitude 10° 18:53:09 10° 330° (NNW) 1,943 4.8 -13.6°
Sets 18:55:28 0° 339° (NNW) 2,844 5.5 -14.0°
